This is the latest recevied weather packets stored in our database for station/object 9A7DI-13. If no packets are shown the sender has not sent any weather packets the latest 10 day(s).
| Time | Temp. | Humidity | Pressure | Rain* | Wind** | Luminosity | Snow |
|---|---|---|---|---|---|---|---|
| 1777423040 | 11.67° C | 65% | 1027.1 hPa | - | - | - | - |
| 1777422440 | 11.67° C | 64% | 1027.2 hPa | - | - | - | - |
| 1777421840 | 11.67° C | 64% | 1027.2 hPa | - | - | - | - |
| 1777421240 | 11.67° C | 64% | 1027.3 hPa | - | - | - | - |
| 1777420640 | 11.67° C | 62% | 1027.3 hPa | - | - | - | - |
| 1777420040 | 11.67° C | 61% | 1027.2 hPa | - | - | - | - |
| 1777419440 | 11.67° C | 63% | 1027.3 hPa | - | - | - | - |
| 1777418840 | 11.67° C | 63% | 1027.4 hPa | - | - | - | - |
| 1777418240 | 12.22° C | 63% | 1027.4 hPa | - | - | - | - |
| 1777417640 | 12.22° C | 62% | 1027.3 hPa | - | - | - | - |
| 1777417040 | 12.22° C | 61% | 1027.3 hPa | - | - | - | - |
| 1777416440 | 12.22° C | 60% | 1027.3 hPa | - | - | - | - |
| 1777415840 | 12.78° C | 58% | 1027.2 hPa | - | - | - | - |
| 1777415240 | 12.22° C | 59% | 1027.3 hPa | - | - | - | - |
| 1777414640 | 12.22° C | 60% | 1027.4 hPa | - | - | - | - |
| 1777414040 | 12.78° C | 59% | 1027.4 hPa | - | - | - | - |
| 1777413440 | 13.33° C | 59% | 1027.4 hPa | - | - | - | - |
| 1777412840 | 13.33° C | 57% | 1027.3 hPa | - | - | - | - |
| 1777412240 | 13.33° C | 56% | 1027.3 hPa | - | - | - | - |
| 1777411640 | 13.33° C | 57% | 1027.3 hPa | - | - | - | - |
| 1777411040 | 13.89° C | 56% | 1027.2 hPa | - | - | - | - |
| 1777410440 | 13.89° C | 56% | 1027.1 hPa | - | - | - | - |
| 1777409840 | 13.89° C | 56% | 1027 hPa | - | - | - | - |
| 1777409240 | 14.44° C | 53% | 1026.9 hPa | - | - | - | - |
| 1777408640 | 13.89° C | 53% | 1026.9 hPa | - | - | - | - |
* Rain since midnight (hover to see other rain measurements)
** Current wind speed in m/s (hover to see current wind gust speed)